ECMWFFLT2_sfc_temp_057.txt.gz
Temp
90 89 91 91 94 73 83 84 75 80 91 86 77 78 82 81 76 71 83 79 84 93 94 96 95 97 98 100 101 101 100 101 99 97 96 99 102 102 101 99 99 96 98 96 96 95 96 95 95 94 92 92 91 91 90 88 88 88 88 88 88 88 88
91 95 93 93 94 94 87 76 82 92 95 91 79 69 72 71 66 70 81 76 77 78 73 92 92 92 96 97 98 101 99 100 100 97 97 98 101 103 102 100 98 98 98 96 97 98 98 96 96 94 92 93 93 92 91 89 89 87 88 89 89 89 88
90 94 92 88 94 96 89 85 96 81 71 69 78 73 63 65 63 68 75 80 80 80 78 88 88 89 92 95 97 98 99 99 98 100 99 99 102 102 101 101 99 98 98 98 96 98 99 98 95 95 95 95 95 94 93 93 90 91 91 92 91 90 90
89 89 86 73 81 91 94 96 89 93 86 77 72 73 75 73 67 67 70 76 73 85 86 91 90 92 92 94 95 97 99 100 100 100 102 102 100 101 102 101 101 99 100 100 100 99 99 98 97 97 98 97 97 96 93 93 93 92 91 91 90 89 90
88 76 82 79 82 79 81 83 82 84 84 90 86 84 76 72 68 69 69 69 76 86 95 94 93 93 94 95 94 95 98 101 102 102 102 101 101 101 102 103 102 101 100 102 101 100 101 101 100 99 99 98 97 97 96 95 92 93 93 93 92 90 90
77 79 88 88 88 88 84 82 80 84 79 75 70 68 84 80 73 64 69 68 81 91 100 96 96 97 96 97 97 97 98 102 101 102 103 102 101 102 103 105 104 104 101 101 102 101 101 101 101 100 99 99 98 97 98 97 97 95 95 93 91 90 91
79 85 90 93 94 93 90 88 84 88 86 83 76 62 71 79 79 82 79 73 77 91 96 96 96 98 99 98 99 99 100 101 103 104 106 104 102 103 104 105 107 106 103 102 102 99 99 99 99 99 99 99 98 98 98 97 97 96 98 96 94 91 91
86 90 93 92 93 92 88 88 89 88 83 84 81 79 81 75 77 73 75 68 79 90 93 95 97 96 99 99 100 97 101 102 102 103 104 102 101 101 104 102 107 102 104 102 99 98 97 97 97 98 98 98 99 99 99 99 98 98 98 97 96 93 92
75 79 84 85 90 90 86 84 86 88 89 88 88 87 85 75 78 78 73 65 76 87 92 92 95 97 98 99 101 101 99 100 103 103 103 103 101 101 103 103 103 104 104 100 96 96 94 95 99 98 98 98 99 98 100 100 99 100 98 98 97 94 94
60 59 62 66 72 78 85 87 86 87 87 84 82 74 76 67 75 77 74 75 81 87 90 91 95 95 95 98 101 102 102 100 101 102 103 99 98 96 98 99 100 101 98 97 95 95 94 97 99 96 96 98 100 99 99 101 101 99 99 100 98 95 95
71 72 71 82 84 82 77 82 84 85 87 89 86 81 75 70 74 74 77 80 77 83 86 88 91 92 93 94 97 99 98 100 101 97 97 98 96 95 98 97 98 97 96 95 95 94 97 99 99 99 99 98 99 97 98 101 101 100 98 97 95 95 95
75 71 73 78 79 80 82 82 83 86 84 85 83 77 74 80 76 68 78 79 80 82 86 87 89 92 93 96 96 97 97 98 99 98 95 95 98 98 97 96 95 95 95 95 95 94 97 98 98 99 100 100 98 97 98 99 101 102 101 97 94 93 94
79 77 74 77 79 81 82 84 84 82 84 84 80 79 84 81 74 72 78 79 78 84 88 91 92 93 92 95 97 99 99 99 98 97 98 100 100 98 97 94 94 94 94 93 94 95 96 98 97 98 99 99 97 97 98 98 102 101 99 95 94 95 93
74 75 74 77 75 77 77 78 83 86 86 85 84 84 86 84 78 82 83 79 82 88 91 92 93 95 97 97 98 98 97 99 96 98 97 102 102 100 98 96 96 94 94 94 93 94 93 95 95 98 97 96 98 98 98 100 97 99 98 95 94 93 92
68 74 74 75 75 75 72 78 82 86 86 86 86 86 86 85 84 85 85 80 79 89 93 94 96 96 97 96 95 97 97 99 100 99 100 101 102 102 100 96 97 96 95 95 94 93 93 93 95 95 96 96 98 100 98 98 95 97 100 95 95 94 92
62 70 71 73 75 74 74 75 77 76 79 80 84 81 86 83 78 81 82 77 78 87 92 94 94 93 91 91 92 93 95 98 97 96 98 99 99 101 102 101 99 97 97 96 95 94 96 96 95 95 94 97 97 97 98 98 99 100 99 98 95 92 94
60 70 73 72 71 70 67 70 76 78 80 81 85 86 86 86 87 81 77 79 87 89 90 89 90 92 92 92 93 94 95 94 96 95 96 98 99 99 99 99 99 101 102 100 96 98 99 98 97 98 97 98 94 95 96 96 97 98 99 99 94 92 93
61 70 72 72 66 56 59 78 83 81 79 79 77 79 82 85 85 83 85 85 87 88 88 87 88 90 90 91 94 96 94 93 93 96 97 99 100 101 102 102 103 103 102 101 103 102 100 100 102 101 99 98 97 97 97 97 95 94 94 96 94 92 91
60 68 64 59 52 57 75 81 84 85 83 83 81 82 84 85 86 87 85 86 86 88 90 90 90 91 94 95 95 97 100 97 97 95 98 97 98 98 98 98 101 100 99 97 98 98 101 103 101 101 99 100 98 96 96 96 95 93 94 94 93 92 91
61 60 61 48 53 69 77 81 82 84 85 84 82 78 83 85 87 87 84 86 88 88 89 91 92 91 94 95 95 95 98 100 99 99 99 99 100 100 101 99 95 93 97 96 98 97 98 100 102 102 101 101 98 95 96 96 96 94 93 92 93 92 91
53 57 59 58 67 66 70 72 75 77 73 77 76 69 76 85 86 86 85 87 89 90 91 92 93 93 94 90 91 99 100 100 102 102 101 102 102 102 101 102 98 93 92 92 94 94 94 96 99 101 102 102 99 97 96 97 95 94 93 91 92 91 91
62 56 55 58 58 53 64 73 80 82 83 83 83 78 74 85 88 88 86 84 86 88 91 91 92 93 87 83 87 95 101 103 103 103 104 104 103 103 101 96 94 93 92 92 93 93 93 93 96 98 101 100 97 94 93 94 95 93 93 92 92 92 91
58 56 52 54 53 58 71 75 79 82 83 84 81 73 68 81 86 88 88 85 85 85 86 87 88 84 79 82 88 96 97 97 96 97 104 105 100 95 93 92 93 93 91 89 90 91 91 92 94 96 98 98 96 94 94 96 96 95 93 92 93 92 92
57 56 53 52 60 63 70 78 80 83 83 81 76 60 64 75 82 84 85 85 84 84 81 82 82 80 78 82 89 94 94 94 96 91 90 90 91 93 92 94 91 88 87 87 87 90 91 91 93 95 98 97 94 94 95 97 95 94 93 93 93 93 93
54 52 56 61 63 69 77 78 78 79 82 78 63 55 67 76 80 81 82 83 82 81 80 82 80 84 87 89 92 93 94 95 92 91 91 90 89 89 91 90 84 87 89 89 89 91 92 91 94 96 97 96 93 92 92 92 92 95 95 94 93 93 92
53 56 53 55 63 73 78 78 78 80 72 59 61 67 75 80 79 82 82 81 81 81 80 81 82 84 88 89 91 91 93 91 88 89 90 89 90 91 88 84 84 87 90 88 89 92 92 91 93 96 95 92 92 91 91 91 93 97 96 94 93 92 92
58 57 54 51 43 66 79 78 77 78 67 61 69 75 78 82 81 81 81 81 80 80 79 82 82 83 86 87 87 88 89 88 86 86 86 84 85 85 85 88 88 88 88 88 88 88 92 94 93 93 94 91 91 90 89 91 94 95 95 94 93 92 91
51 52 49 50 64 69 77 76 68 73 75 74 76 74 75 80 82 81 78 80 79 80 79 79 81 82 82 83 85 86 87 87 87 87 85 84 84 85 89 89 87 87 85 85 86 86 88 89 91 92 92 90 90 89 89 92 94 94 94 93 92 91 91
59 57 62 66 65 70 75 75 74 74 76 77 77 76 76 76 78 80 78 77 80 80 80 79 80 80 82 83 85 85 85 86 86 85 84 83 82 83 82 85 85 86 86 84 85 85 87 88 90 91 92 90 89 88 91 93 92 93 93 92 91 90 91
62 64 64 65 68 70 72 76 77 75 76 79 78 76 73 76 77 78 77 78 78 78 79 78 79 80 81 81 83 84 85 85 85 83 81 81 81 82 82 82 83 84 85 85 85 83 85 87 88 89 91 91 88 88 89 90 92 92 91 90 89 90 91
53 47 64 64 65 68 68 69 72 75 78 78 78 75 74 75 77 78 79 79 77 78 78 78 77 79 81 81 82 82 81 82 82 82 81 80 80 80 81 81 82 83 84 84 84 84 84 86 87 88 87 87 87 87 89 90 91 91 90 89 89 89 90
53 53 62 66 68 67 68 69 69 70 72 74 76 76 76 77 77 78 78 80 79 79 79 79 77 78 80 80 79 80 80 80 80 79 79 79 79 80 80 81 82 83 82 82 81 81 80 83 85 86 86 86 87 88 90 91 91 90 88 88 88 89 90
60 62 63 64 66 66 67 69 71 72 73 74 73 72 72 74 74 75 77 79 79 79 78 78 77 76 78 80 80 80 79 79 78 78 78 79 78 79 79 80 81 80 79 80 80 80 80 81 82 83 84 85 86 87 88 89 89 88 87 86 88 89 90
54 56 60 63 56 57 66 69 71 72 71 69 70 70 70 71 70 70 70 73 77 80 80 78 78 77 77 78 79 78 79 78 78 78 78 78 78 78 79 80 80 79 79 80 80 80 80 81 82 83 84 85 85 86 86 87 86 85 84 85 86 86 87
53 61 64 64 64 64 67 68 69 69 71 70 67 67 68 70 71 71 70 69 71 74 78 79 78 76 76 77 78 77 77 77 77 77 77 76 76 77 78 78 78 78 79 79 79 79 80 80 80 81 81 82 83 85 85 86 86 85 85 84 84 85 85
60 63 64 65 63 61 64 68 69 70 70 69 67 68 69 70 70 71 70 69 68 70 75 76 76 76 77 77 78 75 75 76 76 76 77 77 77 77 78 78 77 78 78 78 79 79 80 80 80 80 81 82 83 85 85 86 87 87 87 86 85 84 85
57 64 65 65 63 64 67 68 69 70 70 69 67 68 68 68 69 70 68 68 69 71 72 73 74 75 75 75 74 74 74 75 74 74 75 74 75 76 78 78 78 78 79 80 80 81 81 80 80 80 80 81 82 84 84 85 85 84 84 84 83 83 84

ECMWFFLT2_sfc_temp_060.txt.gz
Temp
91 89 92 91 94 72 82 84 75 79 90 84 75 76 80 79 73 67 80 77 81 90 91 95 97 97 97 98 99 101 100 98 95 95 95 96 97 91 93 92 91 90 93 94 95 94 94 93 93 91 89 89 88 87 86 85 85 85 85 85 85 85 85
92 96 94 93 94 94 86 75 82 91 94 90 77 67 71 70 65 69 78 74 76 76 70 91 92 92 95 96 97 100 99 99 94 95 94 94 97 94 93 92 91 92 93 93 96 96 95 93 93 92 89 91 89 89 87 86 85 84 86 86 86 86 85
90 95 92 88 93 96 88 83 95 80 70 69 76 72 62 63 62 67 74 79 79 79 76 86 86 89 91 93 95 97 97 99 94 95 95 95 97 95 94 95 93 94 94 94 94 96 97 95 92 93 92 92 92 90 89 89 86 87 87 88 87 87 87
90 90 86 72 80 90 94 96 88 92 84 76 70 72 74 72 65 65 68 75 71 85 85 89 89 90 91 93 94 96 98 100 97 95 95 96 96 95 93 95 96 97 97 97 97 97 97 95 94 95 95 95 94 92 90 89 89 88 87 87 87 86 87
89 76 81 77 80 77 81 82 82 84 83 89 84 82 75 71 67 67 66 66 73 84 95 92 91 92 92 93 92 93 97 99 99 95 97 95 96 96 95 97 98 98 97 98 98 98 98 98 96 96 96 95 94 94 92 91 88 88 88 89 88 87 87
78 81 88 87 86 86 83 82 80 83 78 74 68 66 83 79 71 61 68 66 78 91 99 96 94 95 96 95 94 95 98 100 98 99 97 96 96 96 98 98 99 99 97 98 99 98 98 98 97 96 96 96 95 94 93 92 92 90 90 89 88 87 87
81 86 91 92 92 91 89 87 83 88 85 82 74 60 69 78 78 81 78 72 73 90 95 97 97 98 99 97 97 97 98 99 101 100 101 98 96 98 99 99 101 99 97 97 98 96 96 96 96 96 96 96 95 94 94 93 92 91 92 91 90 88 87
85 92 93 92 92 91 87 87 89 87 82 83 79 78 79 74 76 72 74 67 76 90 92 95 98 97 100 98 99 96 98 100 100 100 100 96 95 96 101 100 101 98 98 96 95 94 94 94 93 94 95 95 95 95 95 95 93 93 93 92 92 89 88
68 79 83 85 89 88 84 83 86 88 89 87 87 86 84 73 76 77 72 63 74 87 92 92 95 97 98 97 99 101 97 97 101 101 99 97 94 95 99 97 96 96 97 95 92 93 91 92 96 94 94 95 96 95 96 95 95 95 94 93 92 91 90
55 58 60 65 70 76 83 87 86 87 86 85 81 74 75 66 73 75 72 72 79 86 88 91 93 94 92 97 99 100 101 97 99 100 99 93 94 92 95 95 94 94 92 92 91 91 91 94 96 93 92 95 96 96 96 97 96 95 95 95 94 91 91
65 72 75 83 84 81 76 81 84 85 87 88 86 81 75 70 74 73 75 78 76 80 85 87 91 92 92 94 95 96 97 99 99 93 93 95 93 93 96 94 94 92 90 91 91 91 94 97 97 96 95 95 96 93 94 97 97 96 94 94 92 91 91
71 75 75 80 81 79 81 80 82 85 84 85 83 78 74 78 75 67 77 79 77 81 86 89 90 92 92 95 94 96 96 94 96 94 91 94 98 97 95 96 94 92 90 91 91 91 94 96 96 97 97 97 95 94 95 96 98 98 97 94 91 90 90
75 77 79 81 80 79 80 83 83 83 85 83 80 80 84 81 74 71 77 80 79 82 88 89 91 91 91 96 96 98 99 97 94 92 95 97 97 95 96 93 93 92 92 90 90 92 93 95 95 96 97 96 95 94 95 95 99 98 95 92 91 92 90
74 75 77 81 78 77 78 79 83 85 86 84 84 84 86 85 78 82 83 80 83 88 89 91 93 95 97 97 97 96 96 97 93 97 94 99 98 97 96 94 94 93 92 92 91 92 92 94 93 97 95 94 95 95 95 97 95 96 94 92 91 90 90
67 73 76 78 79 77 74 78 82 86 87 85 85 85 86 85 84 86 86 79 79 90 91 93 95 94 96 94 96 96 94 96 97 96 98 98 98 97 95 92 93 92 93 93 92 91 91 92 93 93 94 94 96 99 97 96 93 95 97 92 92 91 90
62 70 73 76 78 75 74 74 77 81 83 80 83 81 86 83 79 81 83 78 79 89 92 94 94 94 92 91 92 94 94 98 95 95 97 96 95 96 96 94 94 92 93 92 91 92 94 95 93 94 92 95 96 96 96 96 97 98 97 95 93 90 91
60 70 73 74 74 70 66 69 74 77 84 84 88 88 88 87 88 80 75 78 86 89 92 90 90 94 91 91 93 92 94 92 96 96 97 98 98 96 93 92 91 95 96 95 92 94 95 95 95 97 95 96 92 93 93 93 95 97 97 98 92 90 91
58 67 70 71 64 55 59 78 83 84 81 82 82 83 85 89 89 86 88 88 87 89 90 91 91 90 89 90 91 95 93 91 92 96 95 97 99 101 101 100 98 95 95 95 95 96 94 95 99 98 96 96 94 94 94 94 94 93 92 94 92 90 90
58 66 67 59 52 57 75 82 87 88 87 85 82 83 87 89 90 91 88 88 88 89 92 92 91 90 93 95 96 97 97 94 94 93 95 95 95 95 95 94 98 93 92 94 94 96 99 99 97 98 96 97 95 93 94 93 92 91 92 91 91 90 89
63 58 59 49 54 71 78 81 85 88 87 85 81 80 83 91 92 88 88 89 88 88 89 92 92 91 94 96 93 94 98 97 97 97 97 98 99 98 98 96 92 93 96 95 97 93 96 100 102 100 98 98 96 93 94 94 94 92 91 90 90 90 89
52 57 57 58 70 72 73 74 78 79 76 78 77 69 76 87 89 87 85 86 88 89 90 92 92 93 94 89 90 96 97 98 100 100 100 102 100 100 99 98 91 90 92 92 93 93 95 97 98 99 100 99 96 95 94 96 93 92 91 89 89 89 90
60 54 53 57 59 54 63 73 82 86 86 85 85 78 74 84 88 90 88 86 87 88 90 91 91 92 85 81 85 93 98 100 100 95 94 95 98 97 94 93 93 91 91 92 93 93 93 93 95 96 100 97 93 91 91 92 92 92 92 90 90 90 90
55 53 50 53 53 59 71 74 82 84 85 85 85 75 68 82 86 88 87 88 88 88 89 89 90 85 79 80 84 93 95 94 93 91 91 93 93 93 92 90 90 89 87 88 89 90 90 91 93 94 95 95 93 91 92 95 95 94 91 90 91 91 90
52 54 53 51 61 61 72 79 82 86 87 85 78 59 63 80 87 88 89 88 88 87 81 84 87 83 78 81 82 92 93 95 91 90 89 88 90 91 91 89 88 88 88 87 88 89 90 90 92 93 96 93 91 92 94 95 94 92 91 91 91 91 90
52 51 53 59 64 69 74 75 80 84 86 80 63 53 66 73 80 81 88 86 81 82 82 84 80 84 85 84 87 92 93 92 89 90 90 89 89 89 89 88 86 87 89 89 89 90 90 89 92 94 94 93 90 90 91 91 90 93 93 92 90 90 90
52 55 51 55 61 72 76 78 80 80 74 59 58 62 71 76 80 81 82 80 81 81 80 80 80 81 86 86 88 87 89 89 90 90 89 88 88 89 88 88 88 87 89 89 90 92 92 93 92 92 91 89 89 90 90 90 91 94 93 91 90 90 89
58 56 52 50 43 67 80 76 75 74 60 56 65 70 77 81 80 79 80 79 78 80 78 81 81 82 84 85 85 86 87 88 88 87 86 84 84 84 85 87 89 88 86 87 87 87 90 91 89 91 91 89 89 89 88 90 92 93 93 92 90 90 89
49 50 48 49 63 68 78 71 59 65 69 71 72 69 72 77 76 76 77 76 77 79 77 77 80 81 82 82 83 83 85 86 87 88 86 84 83 84 86 87 87 87 85 86 86 87 87 88 88 89 89 88 89 89 89 91 92 92 92 91 90 89 88
56 54 61 65 64 70 76 71 69 70 75 78 77 75 74 73 73 76 76 75 78 78 77 77 78 79 81 81 83 83 83 85 85 84 84 83 82 83 82 83 84 85 85 84 85 86 87 87 88 89 89 88 89 89 90 91 91 91 91 91 89 88 89
62 63 62 64 68 71 72 73 74 74 76 79 78 75 72 72 74 76 74 76 77 79 79 77 77 78 79 80 81 82 83 82 83 83 83 83 83 83 83 83 84 84 85 85 86 85 86 87 87 90 90 90 89 89 91 90 91 91 91 89 88 88 89
54 48 65 64 66 69 70 69 72 75 77 76 77 74 72 72 74 75 75 74 75 77 78 78 76 77 79 78 79 79 80 81 81 82 81 81 81 81 80 82 82 82 84 84 85 85 84 87 87 87 85 87 88 89 89 92 92 91 90 88 87 87 88
54 55 63 66 69 67 68 69 68 70 72 74 73 73 73 73 75 75 75 75 76 76 75 75 76 76 78 77 76 77 78 79 80 80 80 79 80 81 82 82 82 82 82 83 82 81 81 83 85 86 87 87 87 89 90 91 92 90 88 88 87 87 88
60 63 64 66 67 67 68 69 71 72 72 72 71 71 71 73 72 73 74 76 75 75 75 75 74 75 76 77 77 77 77 79 79 79 79 80 80 79 79 79 81 80 81 81 81 81 81 83 84 85 85 86 88 88 89 89 89 88 87 87 87 87 88
53 55 61 65 57 58 66 69 70 72 74 71 70 69 70 70 70 70 71 72 75 75 76 75 74 73 74 75 76 76 77 78 78 79 79 79 79 79 80 81 80 80 81 80 80 80 80 82 82 82 83 85 86 87 87 87 89 86 85 86 86 86 87
53 61 64 66 66 65 68 69 72 73 70 70 67 67 67 69 70 71 69 69 70 71 73 75 74 73 73 76 76 75 77 77 78 78 79 78 78 78 79 79 80 79 79 79 79 79 80 80 80 81 82 83 84 85 86 86 86 85 86 84 85 86 86
62 65 66 67 63 59 62 67 67 67 69 69 68 68 69 69 69 70 70 69 68 68 71 73 75 74 73 76 77 76 77 79 78 78 79 79 79 79 79 78 78 78 78 79 79 78 80 80 80 80 81 82 83 84 84 85 85 85 85 83 82 82 82
58 65 65 66 65 65 68 70 70 69 69 69 68 67 68 68 70 71 69 68 69 70 69 71 73 75 74 75 76 76 76 77 78 78 77 77 78 77 78 79 78 78 78 79 79 79 79 80 79 80 79 81 83 84 84 84 83 83 83 82 81 80 80

ECMWFFLT2_sfc_temp_063.txt.gz
Temp
82 83 86 85 86 64 73 76 68 71 78 75 63 65 70 69 61 54 65 63 71 75 79 79 84 84 87 89 89 86 83 86 86 85 86 86 87 87 87 86 85 84 85 85 87 87 87 87 87 86 85 85 84 83 82 81 81 82 81 82 81 82 81
83 87 88 87 87 85 75 69 73 81 83 80 65 54 56 55 51 54 67 62 60 65 58 80 77 80 84 86 88 88 84 86 86 86 86 87 87 88 87 87 86 86 86 86 87 89 89 88 88 87 85 86 85 84 83 82 81 80 81 82 82 81 81
83 87 86 82 87 89 79 75 85 73 59 61 62 63 50 49 50 52 61 68 64 66 64 75 78 78 80 83 86 89 83 85 85 86 87 87 88 88 87 87 86 85 86 86 87 88 89 89 88 88 87 87 86 85 85 84 82 82 82 83 83 82 82
82 83 80 67 74 84 87 86 80 83 72 65 56 63 62 58 49 55 54 63 56 71 72 78 79 81 82 82 83 87 88 85 87 87 88 87 87 87 87 87 87 87 87 88 89 89 89 89 88 89 88 88 87 86 85 84 84 84 83 82 82 82 82
81 70 75 72 74 72 75 74 72 75 74 76 71 70 65 55 52 50 52 52 61 67 78 82 81 83 82 84 79 82 89 87 89 88 88 87 88 87 87 88 88 88 89 89 90 91 91 91 90 90 89 88 88 87 86 85 83 83 83 83 83 82 82
72 74 82 81 80 80 76 74 70 73 70 63 61 53 73 69 59 47 54 51 61 75 89 84 84 85 86 85 84 78 87 87 89 89 89 88 88 87 88 88 89 89 89 90 91 92 91 91 90 90 90 89 89 87 87 86 85 85 84 83 83 83 83
70 79 84 87 86 85 82 79 74 78 76 70 61 46 57 67 67 72 64 57 55 72 80 83 86 87 88 87 88 83 83 87 90 90 90 88 88 88 89 89 90 90 89 90 90 90 91 90 89 90 90 89 89 88 88 87 86 85 86 85 85 84 83
76 82 87 86 87 85 80 80 81 78 73 75 67 62 64 62 63 60 60 54 57 70 78 80 86 85 88 88 89 82 83 88 90 91 90 87 87 87 90 91 91 90 90 89 89 88 89 89 88 89 89 90 89 89 89 88 86 86 86 86 86 84 83
58 67 71 77 83 82 76 75 79 80 79 80 77 74 68 62 64 65 54 49 56 71 77 77 84 86 89 87 89 87 83 85 90 90 90 89 87 87 88 89 89 89 90 88 87 88 88 88 89 89 89 89 90 89 89 88 87 87 87 87 86 85 84
45 46 49 53 64 71 76 79 78 80 78 76 73 65 60 51 58 65 58 57 64 72 74 77 80 81 81 85 87 86 87 85 89 89 90 88 87 86 88 88 88 89 88 88 87 87 88 89 89 88 88 90 90 90 90 90 89 88 87 88 87 86 85
47 52 54 65 73 74 70 74 76 78 80 80 74 66 58 53 54 60 57 59 62 71 76 77 77 78 79 80 83 83 83 88 87 87 87 88 86 86 88 88 89 88 86 86 86 87 88 90 90 89 89 90 90 89 89 90 90 89 88 87 86 85 85
60 64 64 70 74 74 75 74 75 78 78 78 73 67 63 61 59 50 61 63 67 67 72 75 75 76 75 77 80 80 81 81 82 85 86 88 87 88 89 88 86 85 85 85 85 86 88 89 90 89 90 90 90 89 89 90 91 90 90 87 86 85 85
63 66 68 70 71 74 74 77 76 75 77 77 73 68 72 68 57 54 60 64 66 69 75 76 74 75 76 80 81 81 83 84 82 83 87 88 88 85 87 86 86 86 85 85 85 86 88 89 89 89 89 90 90 89 90 90 92 91 89 87 86 86 85
61 65 68 71 70 72 73 72 76 78 77 77 77 75 76 74 64 68 66 65 71 77 77 78 81 80 81 82 84 84 83 83 83 85 86 89 89 86 86 86 85 85 86 86 86 86 87 89 89 89 89 89 89 89 90 91 90 91 89 87 86 85 85
57 65 67 70 71 71 69 72 74 74 74 77 79 79 77 74 75 77 74 68 68 76 79 79 79 79 84 85 85 84 80 84 87 86 87 87 86 85 86 84 85 83 84 85 85 85 86 88 89 89 89 89 90 91 90 90 89 90 90 87 87 86 85
51 63 64 67 69 70 70 68 69 70 70 67 76 75 79 72 66 72 71 64 66 74 78 80 79 79 79 77 77 80 81 85 84 85 85 84 84 85 85 85 84 83 84 84 84 85 87 89 89 89 88 89 89 90 90 90 91 92 90 89 87 86 86
47 58 61 62 64 61 57 60 67 70 71 71 77 81 81 79 76 73 61 63 70 73 80 79 76 80 78 78 78 79 79 78 80 81 81 85 85 83 82 83 84 86 86 85 85 87 89 89 89 90 88 89 88 89 89 89 90 91 91 90 87 86 87
46 54 57 59 54 45 47 68 76 75 72 73 70 75 80 80 78 71 71 70 74 77 81 79 75 78 77 78 78 81 78 77 78 82 82 85 85 86 84 84 85 82 82 84 86 87 86 87 90 91 89 88 88 89 90 89 89 89 89 89 87 86 86
43 50 53 48 44 47 64 75 77 78 78 76 72 73 78 81 82 80 78 78 76 75 76 77 77 78 79 82 82 83 82 79 79 79 82 84 82 82 82 81 81 80 81 81 82 82 85 87 86 87 86 87 86 85 87 87 88 88 89 89 86 85 85
49 46 45 40 47 62 72 75 77 79 78 76 73 69 75 77 77 78 77 82 79 77 80 81 78 80 83 84 81 83 85 83 82 81 80 82 83 81 81 80 80 82 84 84 84 83 86 87 88 89 88 87 85 85 85 86 87 88 87 87 85 84 85
41 45 44 49 60 62 66 68 70 71 66 67 65 57 64 69 72 75 75 78 80 80 81 81 80 82 83 78 77 85 84 83 85 85 83 83 82 82 82 82 81 81 83 83 84 83 81 83 85 87 88 88 86 85 85 86 85 86 85 85 86 83 85
49 42 43 48 50 45 53 64 74 79 81 79 73 66 62 70 72 76 75 75 77 79 80 80 80 81 75 69 71 80 84 85 85 85 85 84 83 82 82 81 81 80 80 81 82 82 81 80 81 83 87 86 85 83 83 84 83 84 85 85 86 84 84
46 44 41 43 44 51 57 63 71 75 79 80 75 63 56 66 69 75 75 73 73 75 76 77 77 72 65 64 70 80 82 83 84 82 83 84 83 82 81 81 80 79 78 79 81 80 80 80 80 81 83 85 82 83 84 86 86 85 85 85 85 85 83
46 45 41 41 52 52 57 66 68 72 76 79 66 48 50 63 67 73 73 72 71 72 73 73 71 68 64 65 70 81 83 83 82 81 80 80 81 82 82 81 81 78 79 78 78 79 80 81 81 81 83 83 82 82 84 86 86 85 85 85 85 85 83
46 46 44 48 52 59 61 67 67 69 76 72 52 42 53 64 68 71 71 71 72 72 71 72 68 69 72 74 78 82 83 82 81 81 81 81 81 80 81 81 82 80 80 80 79 80 80 80 82 82 82 81 79 79 80 81 84 87 86 84 83 83 83
43 45 44 46 52 57 65 68 70 69 66 47 45 55 63 66 70 71 72 70 71 72 71 71 71 74 77 78 80 80 81 80 79 79 80 80 80 82 80 81 81 79 80 79 80 82 80 83 83 82 81 79 79 78 78 81 84 86 83 83 83 83 83
49 48 44 41 35 55 67 66 66 67 51 52 59 62 68 72 70 70 70 70 71 72 70 73 73 74 76 76 76 77 78 78 78 77 77 76 77 77 77 78 80 80 77 78 78 78 81 81 80 80 79 78 78 79 79 80 82 83 84 83 83 83 83
43 43 41 40 50 57 68 63 52 61 63 62 63 65 63 68 68 67 66 67 69 70 70 71 72 73 73 73 74 75 76 76 77 77 76 76 76 77 79 79 78 79 77 76 77 77 79 78 78 79 79 78 78 78 79 81 82 83 83 83 83 83 82
49 46 50 54 58 63 67 67 63 68 69 69 68 68 67 65 66 68 66 66 70 70 70 70 71 71 72 72 74 73 74 75 75 75 75 75 75 75 75 77 77 77 77 76 77 77 78 78 78 79 79 78 78 78 80 81 81 82 82 82 82 81 82
58 60 60 59 61 64 64 68 69 69 71 71 69 67 64 66 68 68 66 68 69 70 70 68 68 70 71 71 71 72 73 73 74 74 74 74 74 75 75 75 76 76 76 76 76 76 77 78 79 79 79 78 77 78 81 81 81 81 81 81 81 81 81
48 42 59 60 60 63 65 65 68 70 72 70 68 65 64 65 68 68 69 68 68 69 69 68 67 68 71 70 70 70 70 71 72 73 73 73 74 73 74 75 76 74 75 75 75 75 75 77 78 79 79 79 78 79 80 82 83 83 80 80 80 80 81
47 48 57 60 63 63 65 64 63 64 66 66 66 66 66 66 68 68 68 69 68 69 68 67 67 67 69 68 68 69 69 70 71 72 72 72 73 73 74 74 75 74 74 73 74 73 74 75 76 77 78 79 80 80 81 81 81 80 80 80 80 80 81
51 56 58 60 61 62 63 65 65 64 64 64 64 65 66 67 67 66 67 68 67 67 67 67 67 66 66 68 68 69 69 70 70 71 72 72 72 72 73 73 75 73 73 73 73 73 73 74 75 75 77 78 79 80 80 80 80 79 78 79 80 80 80
45 46 51 57 52 52 58 60 60 61 63 63 62 62 64 65 63 63 64 66 67 68 68 67 67 65 65 67 68 68 69 69 70 71 71 72 72 72 73 74 74 73 74 73 72 72 72 73 75 75 75 76 78 80 80 80 80 78 78 78 79 79 79
45 53 56 56 56 56 58 59 62 62 62 61 60 60 61 62 63 64 63 63 63 64 65 67 66 65 65 66 68 68 69 69 70 71 71 71 71 72 73 72 72 72 72 73 73 72 72 73 73 74 75 76 77 78 78 78 78 78 78 77 77 78 79
55 58 58 58 56 54 57 60 60 61 62 61 60 61 62 62 62 63 63 62 61 61 63 65 66 66 66 67 68 67 68 70 70 71 71 72 72 72 72 73 72 71 72 71 72 72 72 73 74 74 75 76 77 78 77 77 78 77 76 75 74 74 76
51 57 57 58 58 59 61 61 62 61 63 63 61 60 61 62 62 63 61 61 63 63 61 63 65 66 66 66 66 66 67 69 71 72 73 72 73 73 73 73 72 72 72 72 72 72 73 73 73 75 75 76 77 77 77 77 77 76 76 76 75 75 75

ECMWFFLT2_sfc_temp_069.txt.gz
Temp
71 73 74 73 75 55 62 65 59 63 66 65 54 51 53 52 48 53 49 53 56 58 67 69 66 71 75 79 81 82 81 80 80 80 81 81 82 82 82 82 82 82 83 83 84 83 84 83 82 82 81 81 80 80 79 78 78 78 78 78 78 78 79
68 75 74 75 76 68 62 58 64 68 71 69 59 47 47 47 44 45 48 53 52 56 54 65 66 68 71 74 78 81 81 80 79 80 81 81 82 83 83 83 83 83 83 83 84 84 84 84 83 82 81 82 81 81 80 79 79 77 78 78 78 78 78
65 71 71 69 75 78 71 66 73 66 50 54 56 51 46 42 42 41 45 51 53 53 56 59 66 67 66 70 76 79 79 79 79 80 81 82 83 83 82 83 82 82 83 83 83 84 85 85 83 83 82 82 82 81 81 81 79 79 79 80 79 79 79
58 61 64 57 64 71 76 72 71 67 61 59 52 56 47 50 39 45 45 49 54 58 62 63 70 69 69 70 72 76 80 80 80 80 81 81 81 82 82 83 83 83 84 84 84 84 84 84 83 83 83 83 82 82 81 81 81 80 80 79 79 78 79
59 52 60 60 65 62 63 64 63 63 64 61 63 55 54 51 35 37 40 47 50 52 59 67 70 70 69 71 70 74 79 81 82 82 82 82 82 82 83 83 83 83 84 85 85 85 86 85 85 84 84 83 83 82 81 81 80 80 79 80 79 79 79
45 52 61 64 63 64 63 64 62 66 62 54 54 51 56 50 50 38 40 47 48 57 68 72 72 74 74 72 74 73 77 80 81 82 83 83 83 83 83 84 84 84 84 85 85 85 85 85 84 83 84 83 83 82 82 82 81 81 80 80 79 79 79
46 53 59 63 63 63 62 64 64 68 65 57 54 44 48 56 55 51 47 46 56 63 67 72 75 77 80 76 75 76 78 80 82 83 84 84 84 84 84 84 85 85 84 84 85 84 84 84 83 83 83 83 83 82 82 82 81 81 81 81 80 80 79
50 55 59 60 62 62 62 64 67 67 64 65 64 61 50 54 51 55 49 49 54 57 59 65 74 76 79 78 75 75 78 80 82 82 83 82 82 83 85 85 86 85 84 84 83 82 82 82 82 82 83 83 83 83 83 82 81 81 82 82 81 80 79
45 55 56 58 58 59 54 52 55 61 69 69 62 56 53 58 54 57 48 48 58 61 61 61 64 68 72 74 75 77 77 79 81 82 82 82 82 82 83 83 83 83 83 81 81 82 81 82 83 83 83 83 83 83 83 83 82 82 82 82 81 80 79
32 39 41 37 35 43 50 54 57 61 62 66 60 58 52 52 50 54 53 56 60 58 64 69 69 66 66 71 74 77 80 80 81 81 81 80 80 80 81 82 81 81 81 81 81 81 81 82 83 82 82 83 83 83 83 84 83 82 82 83 81 80 80
32 36 37 47 50 48 45 51 53 54 57 60 65 54 50 52 45 53 58 60 61 64 72 74 75 67 67 70 68 73 75 78 81 80 81 81 80 80 80 81 81 81 79 80 80 80 82 83 83 83 83 83 84 83 82 84 84 83 82 82 81 80 80
42 45 45 49 49 44 47 47 49 54 55 58 58 59 59 53 51 50 54 54 61 67 71 74 75 70 66 66 66 73 75 77 79 80 80 81 80 80 80 80 79 79 79 80 80 80 81 82 83 83 84 84 83 83 82 83 84 83 83 81 80 80 80
46 47 47 49 49 48 49 50 52 52 57 57 56 58 61 58 60 56 54 50 57 66 72 77 77 69 70 72 71 75 78 78 79 78 79 79 79 79 79 79 79 79 79 79 79 80 81 82 82 82 83 83 83 83 83 83 84 83 83 81 80 80 79
44 45 47 49 48 51 53 53 55 57 58 58 59 61 60 64 58 60 59 53 61 69 74 76 77 67 68 67 68 71 73 76 77 78 77 79 79 79 79 79 80 80 80 80 79 80 80 81 81 82 82 82 83 83 83 83 83 83 82 81 80 79 79
40 45 49 51 51 49 48 52 56 57 57 58 61 63 62 61 61 60 59 55 58 68 63 64 61 60 63 66 69 73 76 77 77 78 78 79 79 79 80 79 80 80 80 80 79 79 79 80 81 82 82 83 83 84 83 83 82 83 83 80 80 80 79
36 44 46 47 49 48 47 50 53 53 54 56 59 57 57 57 58 60 58 54 55 64 61 64 63 61 63 64 66 70 73 76 77 77 78 78 78 79 80 80 80 80 80 79 78 79 80 81 82 82 82 83 83 83 83 83 84 84 83 81 80 80 80
33 42 45 45 45 47 45 47 51 53 55 55 56 56 58 55 55 57 58 60 59 58 61 67 65 64 63 62 61 62 68 71 77 78 78 79 79 80 79 79 80 80 80 80 79 80 81 82 83 84 84 83 82 83 83 83 84 83 83 82 81 80 80
32 41 43 44 41 37 39 52 58 55 54 55 51 51 54 57 57 53 56 58 61 61 63 64 61 64 63 63 66 66 64 66 70 75 77 79 80 80 81 81 81 81 81 81 81 82 82 83 84 85 85 84 84 84 84 83 83 82 82 82 81 80 80
30 38 41 39 35 40 52 59 59 58 59 57 55 55 56 57 58 57 57 59 60 63 64 64 65 66 68 70 69 70 70 67 66 67 69 72 74 77 78 79 80 80 80 80 80 80 82 83 84 84 84 84 83 82 83 82 83 82 82 82 81 80 80
37 34 35 32 39 48 53 57 57 58 59 57 56 55 58 58 57 57 55 58 63 65 65 66 67 68 70 71 70 71 72 72 70 70 69 69 73 73 73 75 74 75 77 79 80 81 83 83 83 84 84 84 83 82 83 83 82 82 82 81 81 81 80
29 34 34 35 42 46 50 48 49 51 48 51 50 45 53 58 60 58 56 59 62 64 65 66 68 69 71 67 67 72 72 72 73 73 72 72 71 72 72 73 72 73 75 76 77 78 78 81 82 83 83 84 83 82 81 83 82 82 81 81 81 81 81
37 30 31 32 32 36 40 47 53 57 59 58 58 53 53 60 61 62 59 58 60 62 64 64 65 67 66 60 62 68 71 73 73 74 74 74 74 74 74 74 74 74 75 77 78 80 78 78 80 81 81 82 81 80 81 81 81 81 81 81 82 81 81
35 32 28 32 30 34 44 46 52 57 59 58 58 53 49 59 61 62 61 60 61 62 63 64 66 65 60 59 62 67 70 71 72 71 72 73 73 73 73 74 74 75 75 76 76 76 76 75 74 79 81 81 80 80 81 82 82 82 81 82 82 82 82
33 33 32 28 36 32 44 50 54 56 59 59 54 44 45 56 59 61 61 60 62 63 64 67 66 64 58 59 63 69 71 71 71 71 70 71 73 73 74 74 74 75 77 77 76 75 74 74 75 76 79 80 80 80 81 82 82 82 82 83 84 84 84
35 37 34 37 39 48 51 51 53 57 59 57 47 39 48 56 58 60 61 60 61 64 64 65 60 62 65 66 68 70 71 70 70 71 72 72 72 72 73 74 75 74 74 74 73 73 73 74 75 76 77 77 75 76 77 78 80 82 82 83 83 83 84
32 33 33 35 42 48 50 53 54 57 54 42 41 51 57 56 56 58 61 60 60 62 62 63 63 65 68 69 69 69 69 68 68 70 70 71 72 73 74 75 74 73 73 73 73 73 74 74 75 75 75 75 74 73 72 74 74 76 77 79 79 79 79
40 39 36 35 29 45 53 52 53 54 45 46 53 56 56 57 56 58 60 59 60 61 61 63 64 65 65 66 66 67 68 68 68 68 69 69 69 70 71 72 74 74 72 71 71 72 73 74 74 74 75 74 73 73 73 73 73 73 74 76 77 78 78
35 37 34 34 44 47 53 52 43 50 51 54 55 55 51 55 56 57 59 61 61 62 62 62 63 64 63 64 64 65 66 67 68 68 69 69 70 70 71 72 72 73 71 71 71 71 72 73 73 74 74 73 74 73 72 72 73 73 73 74 75 76 77
40 38 43 48 51 50 53 53 54 55 56 57 56 56 54 52 53 58 59 60 62 62 62 63 62 62 62 62 63 63 63 65 66 66 67 68 68 69 69 70 72 71 71 70 71 70 71 71 72 72 73 74 74 73 72 73 74 74 73 73 74 75 75
50 53 52 53 52 52 52 55 56 55 56 56 56 55 52 54 54 56 56 60 61 62 63 61 62 62 61 61 62 62 63 64 64 66 67 67 68 69 70 70 71 70 70 70 70 70 70 70 71 72 71 72 72 71 72 73 74 74 73 72 72 74 74
41 37 51 50 50 52 54 53 55 56 57 55 55 54 54 54 56 57 60 60 61 62 62 60 60 61 61 61 61 61 62 62 63 64 65 66 66 67 67 69 71 69 69 69 69 70 69 69 70 71 71 71 70 71 72 73 74 74 73 72 73 73 73
39 41 48 51 53 54 55 53 50 49 52 53 53 54 56 57 58 58 58 60 61 62 61 60 60 60 61 59 59 60 61 61 62 62 64 64 66 67 68 69 69 68 68 67 68 68 68 67 68 69 70 70 70 71 72 73 73 73 74 73 72 72 73
42 47 50 50 52 53 54 54 53 51 52 52 52 53 53 57 58 58 59 60 59 61 60 60 59 59 58 59 58 59 60 61 61 61 63 64 64 65 67 68 69 67 66 67 66 67 67 66 67 68 69 69 70 71 71 72 72 73 74 74 73 72 72
35 38 44 47 41 41 48 51 53 52 53 53 51 52 52 53 55 57 57 58 60 61 61 58 58 57 58 59 58 59 60 60 60 61 62 63 64 65 66 67 67 67 68 67 67 67 66 66 67 68 69 69 70 71 71 72 72 73 73 72 72 71 71
35 43 47 48 47 46 47 50 53 52 52 52 51 50 51 52 55 56 56 56 58 59 60 60 59 58 58 58 59 59 60 60 61 62 62 62 63 64 65 66 66 67 67 68 67 67 66 67 67 67 69 69 69 70 70 71 71 71 71 71 71 71 72
44 46 47 48 46 44 48 51 51 51 52 51 51 52 52 52 54 57 57 57 56 56 59 60 60 59 58 58 58 58 60 60 60 62 63 62 62 64 65 65 66 66 66 67 66 65 65 67 66 66 67 69 68 70 70 70 69 69 69 71 70 69 71
41 48 49 49 48 48 50 51 51 52 53 54 51 51 51 53 55 57 56 56 57 57 57 57 59 60 58 58 58 58 59 60 61 64 65 64 64 64 65 65 65 65 65 65 65 65 66 67 68 68 68 68 68 69 69 70 69 68 68 68 69 69 70

ECMWFFLT2_sfc_temp_072.txt.gz
Temp
59 62 66 69 69 52 56 62 55 59 62 62 52 48 50 49 43 49 47 51 52 57 64 68 65 68 72 74 77 78 78 78 77 77 79 79 80 81 81 81 81 80 81 81 82 82 82 82 81 81 79 79 79 78 78 77 77 78 77 77 77 77 77
60 63 61 65 72 64 58 55 60 64 67 64 54 44 45 44 39 40 43 54 51 55 55 62 64 64 69 71 73 77 77 77 75 78 78 79 80 81 81 82 81 81 81 81 82 83 83 83 82 81 80 81 80 80 79 78 77 77 77 78 78 78 77
58 61 61 63 68 72 66 61 69 63 47 51 55 49 42 39 40 36 44 45 49 54 56 55 62 63 67 68 71 73 75 75 76 78 78 79 81 81 81 81 81 81 81 81 81 83 84 84 82 82 82 82 81 80 80 80 78 79 79 80 79 78 78
54 57 57 53 59 66 72 67 67 64 58 56 49 53 41 45 37 40 42 47 48 54 61 62 68 66 68 69 69 71 75 77 78 78 79 79 79 80 81 82 82 82 82 83 83 83 83 83 83 83 83 83 82 81 80 80 80 80 79 79 78 78 78
54 48 54 55 58 56 60 59 56 60 60 57 62 52 54 46 37 37 38 42 45 51 58 64 69 69 69 71 71 71 75 78 79 80 80 80 80 80 81 82 83 82 83 84 84 84 85 85 84 84 83 82 82 82 81 81 79 79 79 79 79 78 78
41 47 54 53 53 52 50 54 54 58 57 51 49 47 56 51 47 37 40 44 43 56 63 68 70 72 74 72 74 73 75 78 79 80 81 80 80 81 82 83 84 84 83 84 84 84 84 84 84 83 83 83 82 82 82 81 81 80 80 79 79 78 78
43 50 55 59 58 57 56 57 53 57 57 51 50 41 45 51 54 49 44 42 51 59 62 67 70 71 73 73 73 73 75 76 79 81 82 82 82 82 83 83 84 85 84 84 83 83 82 83 83 83 83 83 82 82 82 82 81 81 81 80 80 79 78
47 52 56 56 58 56 53 55 54 54 52 53 52 53 47 52 46 50 51 47 54 66 61 65 69 67 70 69 71 73 75 76 78 79 80 80 80 81 83 84 85 84 84 83 81 81 81 81 81 81 82 82 82 82 82 82 81 81 81 81 81 79 78
42 50 50 53 52 53 47 45 50 52 54 53 52 55 50 51 51 55 47 45 56 60 57 58 62 65 70 70 70 70 72 73 76 79 80 81 80 80 81 82 82 82 82 80 79 80 79 80 82 81 81 82 82 82 82 82 82 82 82 81 81 80 79
29 36 37 32 32 40 45 48 49 52 50 50 50 48 49 46 48 51 49 53 59 62 58 62 62 63 65 64 65 69 71 73 74 75 78 79 79 79 80 80 81 80 80 80 79 79 79 81 82 80 80 82 82 82 82 83 82 82 82 82 81 80 80
32 34 35 43 45 43 40 44 46 47 51 52 51 47 42 44 42 49 52 58 59 59 64 65 69 65 66 68 65 68 70 72 74 72 76 79 79 79 80 80 81 79 78 78 79 79 81 82 82 82 82 82 82 81 81 83 83 82 81 81 80 79 80
40 43 42 46 47 42 43 43 44 48 49 50 48 45 45 48 44 49 53 53 56 64 66 65 65 69 67 64 65 68 68 71 75 76 74 78 79 80 80 80 78 78 78 78 78 79 80 81 82 82 82 82 82 81 81 82 83 83 82 81 79 78 79
42 44 45 46 45 45 45 45 45 45 48 49 47 47 51 50 48 50 55 51 56 66 68 68 69 71 71 69 68 71 74 74 74 73 74 75 78 79 79 78 78 78 78 77 78 79 80 81 81 81 81 81 81 81 82 81 83 82 81 80 79 79 78
41 42 44 46 44 45 46 46 48 49 50 50 52 52 53 53 49 52 55 54 61 69 71 69 70 64 66 67 65 64 66 71 71 73 74 76 78 78 79 78 79 78 79 78 78 79 79 80 80 81 80 80 81 81 81 82 81 82 80 79 78 78 78
37 42 45 46 46 45 43 46 48 50 51 52 53 53 54 54 53 55 56 55 57 66 58 60 59 56 58 61 63 66 66 67 70 72 74 76 77 78 79 78 79 79 79 78 78 78 78 79 80 80 80 81 82 83 82 81 80 81 81 79 79 79 78
33 41 43 43 45 44 43 43 47 48 49 48 51 49 51 49 49 50 54 52 57 60 60 61 60 60 60 60 61 62 63 66 68 71 74 75 76 77 78 78 79 78 78 77 77 78 80 80 80 81 80 81 81 81 81 81 82 82 81 80 79 78 79
31 40 42 41 41 42 41 43 47 48 50 52 54 54 54 52 50 48 52 58 55 55 58 59 59 61 62 63 62 63 64 62 65 69 72 75 76 77 77 77 78 79 79 79 79 80 81 81 81 83 82 82 80 81 81 81 82 82 81 81 79 78 79
30 37 39 41 36 33 37 50 53 52 49 51 48 50 53 54 54 50 52 52 56 57 59 59 59 61 62 62 64 65 64 63 62 66 68 72 76 78 79 79 79 79 79 80 81 81 81 82 84 84 83 83 82 82 82 81 81 80 80 80 79 79 78
28 34 38 34 28 35 48 53 55 55 55 55 51 53 56 55 55 55 54 55 56 60 61 62 62 63 64 66 66 67 68 67 64 65 69 69 73 74 76 76 79 78 78 79 79 79 81 82 82 83 82 82 80 80 81 80 81 79 80 79 78 78 78
36 30 29 24 32 45 50 53 54 57 57 55 52 52 57 56 56 55 53 55 59 62 62 63 64 65 68 67 68 68 70 69 68 66 68 70 73 74 75 76 76 76 78 78 80 79 81 81 82 83 82 82 81 80 81 81 81 80 80 79 79 79 78
26 29 29 32 38 44 45 44 47 50 46 49 47 41 50 56 56 55 54 55 59 61 63 63 64 64 66 64 66 71 71 70 70 69 68 69 73 74 73 76 75 75 77 77 78 78 79 81 82 83 83 82 81 80 80 81 80 80 79 78 79 79 79
35 23 26 27 28 32 38 45 51 55 56 56 55 50 48 57 56 57 55 54 57 59 63 64 63 63 63 60 63 69 71 71 70 71 71 71 71 73 74 73 74 74 75 76 78 79 78 79 81 81 82 81 79 78 79 79 80 79 80 79 79 79 79
33 27 24 24 23 31 42 43 49 52 56 55 56 48 45 53 55 55 55 54 56 58 61 63 64 62 58 59 62 67 69 70 71 70 70 71 71 71 73 75 75 75 76 77 78 78 78 78 78 80 81 80 79 78 79 81 81 80 80 80 80 80 80
32 30 27 23 32 30 42 47 50 52 56 55 51 41 43 50 53 55 54 54 55 58 61 64 63 62 59 60 63 67 69 70 71 71 70 70 71 72 73 74 75 75 76 77 77 78 78 78 78 81 81 80 79 79 80 81 80 80 80 81 81 82 81
34 33 29 33 36 45 47 48 50 53 56 52 44 37 44 51 52 53 54 54 56 58 59 61 59 60 63 64 66 69 70 70 70 72 72 72 72 72 73 74 76 74 75 76 76 77 77 76 79 81 81 80 79 79 78 79 79 81 82 81 81 81 81
31 31 29 31 37 46 49 51 51 54 52 41 40 48 54 52 51 53 53 54 56 57 58 58 59 61 64 66 67 67 67 68 69 70 71 71 72 74 74 75 74 73 73 73 73 73 74 76 78 79 79 78 77 77 77 78 79 81 81 81 81 81 81
37 35 31 31 28 43 52 50 51 51 42 41 49 51 53 54 52 52 52 53 54 56 56 60 60 62 64 64 64 65 66 67 67 68 69 69 69 70 71 71 74 74 72 72 72 72 74 76 77 77 78 76 76 76 76 76 75 76 79 80 80 80 80
32 34 31 32 42 45 51 49 42 46 48 50 51 52 49 52 52 51 50 52 54 57 59 60 61 61 61 63 64 64 64 65 67 68 69 69 69 70 72 72 72 73 71 71 71 72 73 74 75 77 77 75 75 75 74 75 75 75 76 77 79 80 80
37 36 40 46 49 49 52 50 49 49 51 51 51 50 50 48 50 53 51 51 54 58 60 60 61 60 61 61 62 62 62 64 65 66 67 68 68 68 69 70 71 71 71 70 70 70 71 72 74 75 76 76 75 74 74 75 75 75 75 75 76 78 79
45 47 47 51 50 50 49 51 51 50 50 51 50 49 47 49 49 52 52 54 54 57 61 58 59 60 60 60 60 62 63 63 64 65 67 67 68 69 69 69 71 70 70 71 71 70 70 71 72 73 74 75 74 73 74 75 75 75 74 74 74 76 77
38 35 49 48 48 52 51 49 51 52 51 50 50 49 48 49 50 51 54 55 55 58 60 58 58 60 61 60 59 60 61 62 63 63 64 65 66 66 66 69 70 69 69 69 69 70 69 69 71 71 71 72 72 73 73 73 74 74 73 73 74 75 75
36 39 45 47 50 52 53 50 47 47 49 50 50 50 50 51 52 52 54 55 55 58 59 58 58 59 60 59 58 58 59 59 60 61 63 63 64 66 66 68 69 68 68 68 68 68 68 68 69 70 71 71 71 72 73 73 73 74 74 73 74 74 74
40 44 47 46 48 51 49 50 50 49 49 49 49 51 51 52 51 52 54 55 55 57 58 58 57 57 58 60 58 57 58 59 59 60 62 63 63 65 65 66 68 67 67 67 67 68 67 68 69 69 69 70 71 71 72 73 73 75 75 75 74 73 73
34 38 41 43 37 37 45 49 50 50 51 51 50 50 51 51 50 51 51 53 56 56 58 57 57 55 56 59 58 57 58 59 59 60 61 62 63 64 66 67 67 67 68 68 67 68 67 67 68 69 69 69 70 71 72 72 73 73 73 73 73 72 72
34 42 45 46 45 44 45 47 50 52 52 50 50 49 49 50 51 51 51 52 54 54 57 59 56 56 56 57 58 57 58 58 60 60 61 61 62 63 64 65 65 66 67 68 68 68 67 68 68 68 69 69 70 70 70 71 72 72 72 72 72 72 72
43 46 46 47 45 43 46 50 51 51 52 49 48 49 50 50 51 52 52 53 53 53 56 57 58 56 56 57 57 56 57 59 59 61 62 62 62 63 64 64 64 65 66 67 66 67 67 67 68 68 69 69 69 70 70 70 71 71 71 72 72 71 72
41 47 48 48 47 48 50 51 51 52 53 53 50 49 50 50 51 52 52 53 54 54 54 55 57 58 56 56 57 56 56 58 60 63 62 62 62 63 63 64 64 64 64 65 65 66 66 67 68 68 68 69 69 69 70 70 71 70 70 70 70 71 71

ECMWFFLT2_sfc_temp_075.txt.gz
Temp
68 66 67 70 76 58 68 69 61 65 76 70 61 61 62 61 59 55 67 64 68 76 78 83 84 82 82 85 87 88 88 88 86 86 87 87 87 87 87 87 87 85 87 86 86 86 87 86 86 85 84 84 83 83 83 82 82 83 82 82 82 82 82
67 69 67 68 70 75 70 61 68 76 78 74 64 53 57 55 52 55 63 60 64 64 60 80 81 80 83 83 84 88 87 87 85 86 86 87 87 88 88 87 87 87 86 86 87 88 88 87 87 86 84 85 85 85 84 83 82 81 82 83 83 83 82
64 69 70 70 74 76 71 69 80 65 56 55 63 59 48 49 48 53 58 63 65 67 66 75 77 79 81 83 83 85 86 86 86 87 87 87 88 88 87 88 87 87 87 87 86 88 89 89 87 87 86 87 86 86 86 86 84 84 84 85 84 83 83
62 65 67 59 66 74 76 78 72 77 70 62 57 59 60 59 51 52 54 60 57 70 72 78 78 80 82 85 83 83 87 86 86 87 88 88 87 87 87 88 88 88 88 89 89 89 89 89 88 88 89 89 88 87 86 86 86 85 84 84 83 83 84
62 59 65 63 65 65 66 66 66 69 68 74 71 68 61 56 53 53 53 52 60 71 79 79 80 82 83 85 84 83 85 88 89 88 88 88 87 87 87 88 89 89 89 90 90 90 91 91 90 90 90 89 89 89 87 87 85 85 85 85 85 83 84
58 61 62 61 61 61 60 62 64 67 65 60 55 53 68 64 58 50 53 52 64 76 81 82 83 85 86 86 86 86 87 89 88 88 89 88 87 87 88 89 91 91 89 90 91 90 91 91 90 90 90 90 89 88 88 88 88 87 87 86 84 83 84
57 62 64 66 64 63 62 63 61 62 64 65 61 49 57 64 64 67 63 57 61 79 80 79 84 87 89 88 87 87 90 89 90 89 91 90 88 88 90 90 91 91 90 90 90 89 88 89 89 90 90 89 89 89 89 88 88 87 89 87 86 84 84
59 63 63 62 64 64 60 60 61 61 57 57 55 57 59 59 63 59 59 53 62 78 81 83 83 81 83 82 84 83 88 91 90 89 89 88 87 87 90 90 92 91 91 89 88 86 87 87 87 88 89 89 89 89 89 89 88 88 88 88 87 85 84
53 57 58 60 62 62 56 56 57 57 58 58 59 60 60 55 62 63 58 51 61 76 80 82 84 84 81 84 85 85 83 85 87 88 88 88 86 86 88 88 89 89 89 87 85 85 84 85 88 87 88 88 89 88 89 89 89 90 89 88 87 86 86
39 39 42 47 50 52 55 54 55 57 56 55 57 56 57 51 60 63 60 60 69 77 75 78 82 84 80 83 85 86 85 84 86 87 87 85 85 84 85 87 87 87 86 86 85 84 84 87 88 86 86 88 89 88 89 90 90 89 89 89 88 86 87
46 45 43 47 50 52 50 53 54 55 56 57 56 55 52 54 58 59 63 65 68 71 76 76 81 83 83 85 84 82 83 84 84 83 83 86 84 84 86 85 86 85 84 84 84 84 87 88 89 88 88 88 89 86 87 90 90 89 87 87 86 86 87
48 52 49 52 52 49 51 50 52 56 55 55 53 52 54 56 54 52 64 66 66 70 76 78 79 82 81 81 81 86 85 84 86 87 83 83 86 86 85 85 85 84 84 84 84 84 86 88 88 88 89 89 88 86 87 88 90 90 89 86 84 84 85
50 51 51 52 52 51 51 52 53 52 55 55 51 52 56 56 52 53 59 61 60 69 74 77 78 76 77 82 84 83 83 84 84 82 84 86 88 87 86 84 83 84 84 83 84 85 85 87 87 88 88 88 87 87 88 87 90 88 87 85 84 85 84
48 50 50 52 50 51 52 52 54 55 56 55 56 56 58 58 54 57 59 61 62 67 71 75 74 74 75 76 78 80 81 83 80 81 82 86 88 90 89 86 85 84 85 84 83 84 84 86 86 88 87 86 87 87 87 88 87 88 86 84 83 84 83
45 49 51 52 51 51 49 54 55 56 56 56 58 58 59 60 58 60 60 59 58 69 70 68 71 73 75 74 76 77 74 75 78 79 81 84 86 89 89 88 86 85 85 85 84 83 83 84 85 86 86 86 87 89 88 88 86 87 87 84 84 84 83
43 49 49 50 52 52 51 51 54 55 55 54 57 55 57 54 54 56 58 57 60 66 67 69 71 72 72 72 72 73 74 75 74 75 77 80 81 84 87 89 89 86 86 85 84 84 86 87 86 86 85 87 87 88 88 87 88 89 87 86 85 83 84
40 48 48 48 49 51 48 51 55 57 58 59 59 59 57 55 56 56 56 60 60 62 65 64 67 72 71 71 71 70 72 73 74 74 75 77 79 82 83 85 86 89 89 88 85 87 87 87 87 89 88 88 85 87 86 86 88 88 87 87 84 83 84
41 45 47 49 46 38 43 56 60 58 57 57 56 55 54 55 57 54 57 57 61 62 62 62 64 69 69 69 72 74 72 72 73 75 76 77 78 81 85 87 88 88 88 88 88 88 87 88 90 91 89 88 87 88 87 87 87 85 85 85 84 83 83
37 44 46 42 33 41 54 57 61 60 61 58 56 57 54 55 57 57 56 58 58 60 61 63 66 70 73 75 73 74 75 74 73 73 75 76 77 79 82 84 88 87 86 87 87 86 89 90 89 90 88 89 88 86 87 86 86 84 85 84 83 83 83
43 39 40 30 38 52 55 58 59 61 61 60 60 55 55 56 56 55 53 56 58 59 60 63 67 71 75 77 76 75 75 74 73 73 75 77 78 78 82 85 85 85 88 87 88 87 89 90 90 90 89 90 88 86 87 86 86 85 84 83 83 83 83
32 38 41 43 50 51 52 52 52 55 52 53 54 52 52 55 56 53 52 54 57 57 59 62 68 74 76 73 74 76 74 73 74 75 77 79 79 80 80 86 87 86 88 88 89 87 88 90 90 90 90 90 88 87 87 88 86 85 84 83 83 83 83
42 35 35 40 39 38 46 51 57 59 59 58 57 54 51 56 56 55 53 52 54 55 57 61 68 73 72 70 70 71 72 73 74 76 78 80 81 81 83 86 87 85 87 88 87 89 88 88 90 90 90 88 86 84 84 85 85 85 85 84 84 83 83
39 36 33 37 35 41 49 50 55 58 60 58 58 55 47 52 55 55 53 51 52 53 54 59 67 71 67 63 66 68 68 70 73 74 76 79 81 82 82 85 86 87 85 86 87 87 87 88 88 89 89 87 85 84 85 87 87 86 85 84 84 84 84
36 35 35 35 44 40 48 53 55 59 60 58 55 44 44 49 53 55 53 51 51 51 54 59 62 59 57 58 62 66 66 70 72 72 73 76 79 81 83 85 86 85 84 84 85 86 86 86 88 88 89 87 84 85 86 88 87 85 85 85 86 86 85
35 35 37 43 46 52 53 54 55 58 58 53 44 42 45 51 53 53 53 53 52 52 53 56 54 58 59 60 63 65 68 70 70 72 74 76 78 79 81 81 83 84 84 85 86 87 86 85 88 89 88 86 83 84 84 85 84 86 86 86 86 85 85
33 36 35 39 47 52 53 57 56 56 50 42 42 48 54 53 52 53 54 52 53 53 53 55 55 58 61 62 63 63 65 67 69 71 72 74 77 80 80 79 81 84 86 85 86 88 85 87 88 88 86 83 83 83 83 84 85 88 87 86 86 85 85
37 36 35 36 32 46 52 52 54 54 45 43 48 52 53 53 51 51 52 53 52 53 52 57 57 58 58 60 60 61 62 64 66 68 69 70 72 74 76 79 81 82 82 84 86 86 88 89 88 86 85 83 83 83 82 84 86 87 87 87 86 85 85
32 33 33 35 43 46 51 50 42 46 47 49 51 51 50 53 52 51 50 53 54 54 54 55 56 56 57 60 60 60 61 62 64 66 68 69 71 73 76 78 79 81 79 80 80 83 86 86 86 86 85 83 82 82 83 85 86 87 86 86 85 85 84
36 38 44 48 49 48 50 50 49 49 51 52 52 53 51 50 51 53 51 50 54 56 56 55 55 55 60 60 60 58 59 60 62 63 65 66 68 71 73 75 77 79 79 78 79 80 82 83 85 85 85 83 82 82 84 85 85 86 85 85 84 84 85
43 47 48 52 51 51 49 51 52 50 51 52 52 51 50 52 53 53 51 52 52 54 57 55 55 56 59 60 59 60 60 61 62 63 64 66 67 69 71 73 75 77 78 79 78 77 78 80 82 84 85 85 82 82 83 84 85 85 85 84 84 84 85
37 35 48 47 46 50 51 50 52 53 53 52 52 51 51 52 52 53 54 52 53 55 56 56 55 57 59 59 59 60 60 62 62 62 62 64 65 67 68 71 73 75 76 77 77 77 76 78 80 81 82 83 83 82 82 84 85 85 84 84 83 83 84
35 39 45 47 49 51 53 52 50 49 51 52 54 54 53 53 54 55 54 55 54 55 54 57 56 57 59 58 58 59 60 60 61 62 63 63 64 66 68 70 72 74 75 75 75 75 75 76 78 79 81 81 81 83 83 84 84 83 83 83 83 83 84
40 46 47 47 49 51 50 52 53 53 52 51 53 54 54 54 54 54 55 56 54 55 54 57 57 57 58 60 60 60 61 61 61 62 63 63 63 64 65 67 70 71 73 75 75 75 75 76 77 78 78 79 80 82 83 83 83 82 81 81 82 82 83
37 41 43 45 38 42 49 52 52 52 53 53 52 53 54 54 52 53 53 54 56 57 57 57 58 57 58 60 61 61 63 62 62 63 63 63 64 65 65 67 69 70 72 74 75 75 75 77 77 77 78 78 79 81 81 83 84 82 81 80 80 81 83
36 45 47 47 47 46 48 50 52 53 54 53 51 52 53 53 52 53 52 52 53 54 55 58 57 58 58 59 61 60 62 62 63 64 64 63 64 64 65 65 66 68 70 72 73 74 75 77 77 77 77 78 79 79 80 81 82 82 82 81 81 82 82
44 47 48 49 47 44 48 52 53 53 54 53 52 53 54 52 51 52 52 53 52 52 54 56 58 59 59 59 60 60 61 63 63 65 65 66 65 66 66 65 65 67 69 70 71 72 75 76 77 77 78 78 78 80 79 79 80 82 84 84 83 83 83
42 48 49 49 48 48 51 52 52 53 54 54 53 53 53 52 52 53 52 52 53 54 54 55 59 60 59 59 60 60 60 63 65 65 66 66 66 66 66 66 65 65 67 70 71 73 76 76 76 77 77 77 78 79 79 79 80 81 82 82 82 82 82